CW2732 Weather Reports


time (UTC)temp
C
wind
direction
speed
KPH
gust
KPH
rain 1hr
cm
rain 24hr
cm
rain mn
cm
humidity
%
barometer
mb
20260510183348 22 175 0.0 4.8 0.00 0.00 0.00 55 1011.7
20260510182358 23 244 1.6 6.4 0.00 0.00 0.00 55 1011.4
20260510181335 23 130 1.6 9.7 0.00 0.00 0.00 53 1011.4
20260510180353 23 149 1.6 27.4 0.00 0.00 0.00 53 1011.3
20260510175355 23 134 3.2 27.4 0.00 0.00 0.00 53 1011.5
20260510174333 23 227 3.2 27.4 0.00 0.00 0.00 52 1011.4
20260510173353 23 187 4.8 27.4 0.00 0.00 0.00 51 1011.4
20260510172343 24 162 3.2 27.4 0.00 0.00 0.00 50 1011.5
20260510171342 24 221 6.4 27.4 0.00 0.00 0.00 50 1011.4
20260510170340 24 148 6.4 27.4 0.00 0.00 0.00 49 1011.5
20260510165352 25 119 6.4 27.4 0.00 0.00 0.00 48 1011.4
20260510164337 25 155 3.2 27.4 0.00 0.00 0.00 47 1011.6
20260510163336 25 246 4.8 27.4 0.00 0.00 0.00 47 1011.5
20260510162333 26 148 4.8 27.4 0.00 0.00 0.00 46 1011.4
20260510161341 26 139 1.6 27.4 0.00 0.00 0.00 47 1011.4
20260510160339 26 148 4.8 27.4 0.00 0.00 0.00 47 1011.4
20260510155351 26 181 3.2 27.4 0.00 0.00 0.00 48 1011.3
20260510154338 26 207 6.4 27.4 0.00 0.00 0.00 46 1011.3
20260510153335 26 219 3.2 27.4 0.00 0.00 0.00 48 1011.3
20260510152351 26 254 4.8 27.4 0.00 0.00 0.00 47 1011.4
20260510151349 26 173 6.4 27.4 0.00 0.00 0.00 46 1011.6
20260510150336 26 215 4.8 27.4 0.00 0.00 0.00 47 1011.6
20260510145330 26 121 6.4 27.4 0.00 0.00 0.00 46 1011.8
20260510144349 26 195 6.4 27.4 0.00 0.00 0.00 46 1011.7
20260510143337 26 279 3.2 27.4 0.00 0.00 0.00 49 1011.7
20260510142338 25 150 6.4 27.4 0.00 0.00 0.00 61 1011.8
20260510141329 23 123 9.7 27.4 0.00 0.00 0.00 67 1012.0
20260510140405 23 110 11.3 27.4 0.00 0.00 0.00 70 1012.2
20260510135331 23 103 17.7 27.4 0.00 0.00 0.00 68 1012.4
20260510134348 22 109 6.4 25.7 0.00 0.00 0.00 70 1012.6
20260510133335 22 141 9.7 25.7 0.00 0.00 0.00 71 1012.7
20260510132334 23 63 8.0 25.7 0.00 0.00 0.00 69 1012.8
20260510131353 22 130 9.7 25.7 0.00 0.00 0.00 73 1013.0
20260510130344 21 57 11.3 25.7 0.00 0.00 0.00 74 1013.3
20260510125337 21 99 8.0 25.7 0.00 0.00 0.00 77 1013.4
20260510124335 21 67 6.4 25.7 0.00 0.00 0.00 77 1013.6
20260510123409 20 16 9.7 25.7 0.00 0.00 0.00 76 1013.8
20260510122338 21 140 6.4 25.7 0.00 0.00 0.00 74 1013.9
20260510121334 21 39 6.4 25.7 0.00 0.00 0.00 73 1014.0
20260510120354 21 68 11.3 25.7 0.00 0.00 0.00 71 1014.0
20260510115337 21 105 11.3 25.7 0.00 0.10 0.00 66 1014.1
20260510114337 22 113 8.0 25.7 0.00 0.10 0.00 61 1014.1
20260510113356 22 186 11.3 25.7 0.00 0.10 0.00 63 1014.5
20260510112415 23 101 12.9 25.7 0.00 0.10 0.00 60 1014.4
20260510111341 25 157 9.7 20.9 0.00 0.10 0.00 55 1014.4
20260510110339 26 200 3.2 12.9 0.00 0.10 0.00 55 1014.3
20260510105350 25 140 3.2 12.9 0.00 0.99 0.00 54 1014.4
20260510104336 25 117 1.6 12.9 0.00 0.99 0.00 51 1014.3
20260510103355 25 142 3.2 12.9 0.00 0.99 0.00 53 1014.2
20260510102414 25 115 6.4 12.9 0.00 0.99 0.00 50 1014.3
20260510101343 25 221 3.2 12.9 0.00 0.99 0.00 48 1014.3
20260510100403 25 132 1.6 12.9 0.00 0.99 0.00 52 1014.3
20260510095332 24 147 1.6 12.9 0.00 3.00 0.00 52 1014.3
20260510094336 23 131 3.2 12.9 0.00 3.00 0.00 55 1014.5
20260510093334 23 115 1.6 12.9 0.00 3.00 0.00 56 1014.7
20260510092352 23 78 3.2 12.9 0.00 3.00 0.00 56 1014.7
20260510091340 24 121 1.6 12.9 0.00 3.00 0.00 55 1014.7
20260510090338 24 113 3.2 12.9 0.00 3.00 0.00 56 1014.8
20260510085329 23 165 0.0 12.9 0.00 4.09 0.00 57 1014.9
20260510084338 23 242 1.6 12.9 0.00 4.09 0.00 58 1014.7
20260510083335 23 73 1.6 12.9 0.00 4.09 0.00 57 1014.7
20260510082355 23 119 1.6 12.9 0.00 4.09 0.00 58 1014.8
20260510081339 22 314 0.0 12.9 0.00 4.09 0.00 63 1014.8
20260510080339 22 169 0.0 12.9 0.00 4.09 0.00 63 1014.9
20260510075333 21 309 1.6 12.9 0.00 4.70 0.00 67 1014.9
20260510074344 21 11 0.0 12.9 0.00 4.70 0.00 69 1014.9
20260510073343 20 273 1.6 12.9 0.00 4.70 0.00 71 1015.0
20260510072403 20 325 1.6 12.9 0.00 4.70 0.00 72 1014.9
20260510071333 20 268 1.6 12.9 0.00 4.70 0.00 72 1014.7
20260510070332 18 337 1.6 12.9 0.00 4.70 0.00 74 1014.7
20260510065345 18 324 1.6 12.9 0.00 6.71 0.00 76 1014.6
20260510064331 17 350 0.0 12.9 0.00 6.71 0.00 78 1014.5
20260510063329 17 340 1.6 12.9 0.00 6.71 0.00 81 1014.5
20260510062346 16 300 4.8 12.9 0.00 6.71 0.00 81 1014.7
20260510061336 16 33 1.6 8.0 0.00 6.71 0.00 81 1014.6
20260510060355 16 330 3.2 8.0 0.00 6.71 0.00 82 1014.5
20260510055343 15 322 1.6 4.8 0.00 7.39 0.00 85 1014.4
20260510054343 15 309 0.0 4.8 0.00 7.39 0.00 87 1014.4
20260510053334 14 312 1.6 6.4 0.00 7.39 0.00 87 1014.4
20260510052347 14 216 1.6 4.8 0.00 7.39 0.00 87 1014.3
20260510051345 14 317 0.0 4.8 0.00 7.39 0.00 88 1014.4
20260510050402 14 327 0.0 3.2 0.00 7.39 0.00 88 1014.2
20260510045353 14 317 0.0 3.2 0.00 7.39 0.00 87 1014.4
20260510044344 14 254 0.0 1.6 0.00 7.39 0.00 87 1014.4
20260510043333 14 267 0.0 3.2 0.00 7.39 0.00 87 1014.4
20260510042334 14 288 0.0 1.6 0.00 7.39 0.00 87 1014.3
20260510041351 15 291 0.0 4.8 0.00 7.39 0.00 86 1014.2
20260510040339 15 274 0.0 0.0 0.00 7.39 0.00 86 1014.1
20260510035328 15 290 0.0 3.2 0.00 7.39 0.00 86 1014.1
20260510034348 15 284 1.6 4.8 0.00 7.39 0.00 86 1013.9
20260510033337 15 307 1.6 4.8 0.00 7.39 0.00 86 1014.0
20260510032357 15 306 1.6 6.4 0.00 7.39 0.00 86 1013.9
20260510031354 15 308 1.6 8.0 0.00 7.39 0.00 87 1013.9
20260510030352 15 330 1.6 6.4 0.00 7.39 0.00 87 1013.9
20260510025335 15 314 1.6 6.4 0.00 7.39 0.00 87 1013.9
20260510024334 15 345 1.6 6.4 0.00 7.39 0.00 87 1013.9
20260510023348 15 341 0.0 4.8 0.00 7.39 0.00 87 1013.9
20260510022338 15 306 0.0 3.2 0.00 7.39 0.00 87 1013.9
20260510021338 15 328 1.6 9.7 0.00 7.39 0.00 87 1013.9
20260510020350 15 300 4.8 11.3 0.00 7.39 0.00 87 1013.8
20260510015343 15 306 1.6 6.4 0.00 7.39 0.00 88 1013.9
20260510014343 15 324 0.0 4.8 0.00 7.39 0.00 88 1013.8
20260510013333 15 294 3.2 6.4 0.00 7.39 0.00 88 1013.9
20260510012333 15 312 1.6 6.4 0.00 7.39 0.00 88 1013.9
20260510011351 15 300 1.6 6.4 0.00 7.39 0.00 88 1013.9
20260510010340 15 319 1.6 4.8 0.00 7.39 0.00 88 1014.0
20260510005350 15 25 0.0 4.8 0.00 7.39 0.00 88 1014.1
20260510004346 15 343 0.0 3.2 0.00 7.39 0.00 87 1014.1
20260510003344 15 331 0.0 3.2 0.00 7.39 0.00 87 1014.2
20260510002344 15 360 0.0 6.4 0.00 7.39 0.00 87 1014.2
20260510001334 15 355 0.0 3.2 0.00 7.39 0.00 86 1014.2
20260510000333 15 323 0.0 1.6 0.00 7.39 0.00 86 1014.4
20260509235343 15 318 0.0 1.6 0.00 7.39 0.00 86 1014.5
20260509234330 15 355 0.0 3.2 0.00 7.39 0.00 86 1014.4
20260509233330 15 338 0.0 3.2 0.00 7.39 0.00 86 1014.5
20260509232403 15 11 0.0 0.0 0.00 7.39 0.00 85 1014.6
20260509231342 15 351 0.0 0.0 0.00 7.39 0.00 85 1014.5
20260509230332 16 360 0.0 0.0 0.00 7.39 0.00 85 1014.8
20260509225342 16 10 0.0 0.0 0.00 7.39 0.00 85 1014.8
20260509224332 16 143 0.0 0.0 0.00 7.39 0.00 85 1014.8
20260509223332 16 142 0.0 0.0 0.00 7.39 0.00 84 1014.7
20260509222346 16 142 0.0 0.0 0.00 7.39 0.00 84 1014.7
20260509221334 16 142 0.0 3.2 0.00 7.39 0.00 84 1014.7
20260509220333 16 143 0.0 0.0 0.00 7.39 0.00 84 1014.5
20260509215333 16 142 0.0 0.0 0.00 7.39 1.47 83 1014.5
20260509214351 16 143 0.0 0.0 0.00 7.39 1.47 83 1014.6
20260509213401 16 143 0.0 0.0 0.00 7.39 1.47 82 1014.6
20260509212337 16 142 0.0 0.0 0.00 7.39 1.47 82 1014.5
20260509211334 16 133 1.6 6.4 0.00 7.39 1.47 82 1014.5
20260509210409 16 147 3.2 6.4 0.00 7.39 1.47 81 1014.5
20260509205359 16 152 1.6 11.3 0.00 7.39 1.47 82 1014.4
20260509204356 16 120 1.6 6.4 0.00 7.39 1.47 82 1014.3
20260509203344 17 133 0.0 0.0 0.00 7.39 1.47 82 1014.4
20260509202344 17 119 0.0 0.0 0.00 7.39 1.47 82 1014.3
20260509201355 17 118 0.0 0.0 0.00 7.39 1.47 83 1014.1
20260509200332 17 118 0.0 0.0 0.00 7.39 1.47 82 1013.9
20260509195340 17 119 0.0 0.0 0.00 7.39 1.47 80 1013.8
20260509194357 17 119 0.0 3.2 0.00 7.39 1.47 79 1013.7
20260509193333 17 123 0.0 4.8 0.00 7.39 1.47 79 1013.6
20260509192347 17 118 1.6 6.4 0.00 7.39 1.47 80 1013.5
20260509191338 17 139 1.6 4.8 0.00 7.39 1.47 82 1013.4
20260509190335 17 122 0.0 4.8 0.00 7.39 1.47 84 1013.3
20260509185404 17 101 0.0 4.8 0.00 7.39 1.47 84 1013.3
20260509184343 18 76 3.2 6.4 0.00 7.39 1.47 84 1013.0